Year,Month,Day,Hour,Minute,Value (Times are PST for temperature in C)
2016,09,14,00,00,13.60
2016,09,14,00,01,13.60
2016,09,14,00,02,13.60
2016,09,14,00,03,13.60
2016,09,14,00,04,13.60
2016,09,14,00,05,13.60
2016,09,14,00,06,13.50
2016,09,14,00,07,13.50
2016,09,14,00,08,13.50
2016,09,14,00,09,13.50
2016,09,14,00,10,13.50
2016,09,14,00,11,13.50
2016,09,14,00,12,13.40
2016,09,14,00,13,13.40
2016,09,14,00,14,13.40
2016,09,14,00,15,13.40
2016,09,14,00,16,13.30
2016,09,14,00,17,13.30
2016,09,14,00,18,13.30
2016,09,14,00,19,13.30
2016,09,14,00,20,13.30
2016,09,14,00,21,13.20
2016,09,14,00,22,13.20
2016,09,14,00,23,13.20
2016,09,14,00,24,13.20
2016,09,14,00,25,13.20
2016,09,14,00,26,13.20
2016,09,14,00,27,13.20
2016,09,14,00,28,13.20
2016,09,14,00,29,13.20
2016,09,14,00,30,13.20
2016,09,14,00,31,13.20
2016,09,14,00,32,13.20
2016,09,14,00,33,13.20
2016,09,14,00,34,13.20
2016,09,14,00,35,13.20
2016,09,14,00,36,13.20
2016,09,14,00,37,13.20
2016,09,14,00,38,13.20
2016,09,14,00,39,13.20
2016,09,14,00,40,13.20
2016,09,14,00,41,13.20
2016,09,14,00,42,13.20
2016,09,14,00,43,13.20
2016,09,14,00,44,13.20
2016,09,14,00,45,13.20
2016,09,14,00,46,13.10
2016,09,14,00,47,13.10
2016,09,14,00,48,13.10
2016,09,14,00,49,13.10
2016,09,14,00,50,13.10
2016,09,14,00,51,13.20
2016,09,14,00,52,13.10
2016,09,14,00,53,13.10
2016,09,14,00,54,13.10
2016,09,14,00,55,13.10
2016,09,14,00,56,13.10
2016,09,14,00,57,13.10
2016,09,14,00,58,13.10
2016,09,14,00,59,13.10
2016,09,14,01,00,13.10
2016,09,14,01,01,13.10
2016,09,14,01,02,13.10
2016,09,14,01,03,13.00
2016,09,14,01,04,13.00
2016,09,14,01,05,13.00
2016,09,14,01,06,12.90
2016,09,14,01,07,12.90
2016,09,14,01,08,12.90
2016,09,14,01,09,12.90
2016,09,14,01,10,12.90
2016,09,14,01,11,12.90
2016,09,14,01,12,12.90
2016,09,14,01,13,12.90
2016,09,14,01,14,12.80
2016,09,14,01,15,12.80
2016,09,14,01,16,12.80
2016,09,14,01,17,12.80
2016,09,14,01,18,12.80
2016,09,14,01,19,12.70
2016,09,14,01,20,12.70
2016,09,14,01,21,12.70
2016,09,14,01,22,12.70
2016,09,14,01,23,12.70
2016,09,14,01,24,12.60
2016,09,14,01,25,12.60
2016,09,14,01,26,12.60
2016,09,14,01,27,12.60
2016,09,14,01,28,12.60
2016,09,14,01,29,12.60
2016,09,14,01,30,12.60
2016,09,14,01,31,12.60
2016,09,14,01,32,12.50
2016,09,14,01,33,12.50
2016,09,14,01,34,12.50
2016,09,14,01,35,12.50
2016,09,14,01,36,12.50
2016,09,14,01,37,12.50
2016,09,14,01,38,12.50
2016,09,14,01,39,12.50
2016,09,14,01,40,12.50
2016,09,14,01,41,12.40
2016,09,14,01,42,12.40
2016,09,14,01,43,12.50
2016,09,14,01,44,12.50
2016,09,14,01,45,12.40
2016,09,14,01,46,12.40
2016,09,14,01,47,12.40
2016,09,14,01,48,12.40
2016,09,14,01,49,12.40
2016,09,14,01,50,12.40
2016,09,14,01,51,12.40
2016,09,14,01,52,12.40
2016,09,14,01,53,12.40
2016,09,14,01,54,12.40
2016,09,14,01,55,12.40
2016,09,14,01,56,12.40
2016,09,14,01,57,12.40
2016,09,14,01,58,12.40
2016,09,14,01,59,12.40
2016,09,14,02,00,12.40
2016,09,14,02,01,12.40
2016,09,14,02,02,12.40
2016,09,14,02,03,12.30
2016,09,14,02,04,12.30
2016,09,14,02,05,12.30
2016,09,14,02,06,12.30
2016,09,14,02,07,12.30
2016,09,14,02,08,12.30
2016,09,14,02,09,12.30
2016,09,14,02,10,12.30
2016,09,14,02,11,12.30
2016,09,14,02,12,12.30
2016,09,14,02,13,12.40
2016,09,14,02,14,12.40
2016,09,14,02,15,12.40
2016,09,14,02,16,12.40
2016,09,14,02,17,12.40
2016,09,14,02,18,12.40
2016,09,14,02,19,12.40
2016,09,14,02,20,12.40
2016,09,14,02,21,12.40
2016,09,14,02,22,12.40
2016,09,14,02,23,12.40
2016,09,14,02,24,12.40
2016,09,14,02,25,12.30
2016,09,14,02,26,12.30
2016,09,14,02,27,12.30
2016,09,14,02,28,12.20
2016,09,14,02,29,12.20
2016,09,14,02,30,12.20
2016,09,14,02,31,12.20
2016,09,14,02,32,12.20
2016,09,14,02,33,12.20
2016,09,14,02,34,12.20
2016,09,14,02,35,12.20
2016,09,14,02,36,12.10
2016,09,14,02,37,12.10
2016,09,14,02,38,12.10
2016,09,14,02,39,12.10
2016,09,14,02,40,12.00
2016,09,14,02,41,12.00
2016,09,14,02,42,12.00
2016,09,14,02,43,12.00
2016,09,14,02,44,11.90
2016,09,14,02,45,11.90
2016,09,14,02,46,11.90
2016,09,14,02,47,11.90
2016,09,14,02,48,11.90
2016,09,14,02,49,11.90
2016,09,14,02,50,11.90
2016,09,14,02,51,11.90
2016,09,14,02,52,11.90
2016,09,14,02,53,11.90
2016,09,14,02,54,11.90
2016,09,14,02,55,11.90
2016,09,14,02,56,11.90
2016,09,14,02,57,11.90
2016,09,14,02,58,11.80
2016,09,14,02,59,11.80
2016,09,14,03,00,11.80
2016,09,14,03,01,11.80
2016,09,14,03,02,11.80
2016,09,14,03,03,11.80
2016,09,14,03,04,11.80
2016,09,14,03,05,11.80
2016,09,14,03,06,11.90
2016,09,14,03,07,11.90
2016,09,14,03,08,11.90
2016,09,14,03,09,11.90
2016,09,14,03,10,11.90
2016,09,14,03,11,11.80
2016,09,14,03,12,11.80
2016,09,14,03,13,11.80
2016,09,14,03,14,11.80
2016,09,14,03,15,11.80
2016,09,14,03,16,11.80
2016,09,14,03,17,11.80
2016,09,14,03,18,11.80
2016,09,14,03,19,11.80
2016,09,14,03,20,11.70
2016,09,14,03,21,11.70
2016,09,14,03,22,11.70
2016,09,14,03,23,11.70
2016,09,14,03,24,11.60
2016,09,14,03,25,11.60
2016,09,14,03,26,11.60
2016,09,14,03,27,11.60
2016,09,14,03,28,11.60
2016,09,14,03,29,11.60
2016,09,14,03,30,11.60
2016,09,14,03,31,11.50
2016,09,14,03,32,11.50
2016,09,14,03,33,11.50
2016,09,14,03,34,11.50
2016,09,14,03,35,11.40
2016,09,14,03,36,11.40
2016,09,14,03,37,11.40
2016,09,14,03,38,11.40
2016,09,14,03,39,11.40
2016,09,14,03,40,11.40
2016,09,14,03,41,11.40
2016,09,14,03,42,11.40
2016,09,14,03,43,11.40
2016,09,14,03,44,11.40
2016,09,14,03,45,11.40
2016,09,14,03,46,11.40
2016,09,14,03,47,11.40
2016,09,14,03,48,11.40
2016,09,14,03,49,11.40
2016,09,14,03,50,11.40
2016,09,14,03,51,11.40
2016,09,14,03,52,11.40
2016,09,14,03,53,11.40
2016,09,14,03,54,11.40
2016,09,14,03,55,11.40
2016,09,14,03,56,11.40
2016,09,14,03,57,11.40
2016,09,14,03,58,11.40
2016,09,14,03,59,11.40
2016,09,14,04,00,11.40
2016,09,14,04,01,11.40
2016,09,14,04,02,11.40
2016,09,14,04,03,11.40
2016,09,14,04,04,11.40
2016,09,14,04,05,11.40
2016,09,14,04,06,11.40
2016,09,14,04,07,11.40
2016,09,14,04,08,11.40
2016,09,14,04,09,11.40
2016,09,14,04,10,11.40
2016,09,14,04,11,11.40
2016,09,14,04,12,11.40
2016,09,14,04,13,11.40
2016,09,14,04,14,11.40
2016,09,14,04,15,11.40
2016,09,14,04,16,11.40
2016,09,14,04,17,11.40
2016,09,14,04,18,11.40
2016,09,14,04,19,11.40
2016,09,14,04,20,11.40
2016,09,14,04,21,11.40
2016,09,14,04,22,11.40
2016,09,14,04,23,11.40
2016,09,14,04,24,11.40
2016,09,14,04,25,11.40
2016,09,14,04,26,11.40
2016,09,14,04,27,11.40
2016,09,14,04,28,11.30
2016,09,14,04,29,11.30
2016,09,14,04,30,11.30
2016,09,14,04,31,11.30
2016,09,14,04,32,11.30
2016,09,14,04,33,11.30
2016,09,14,04,34,11.30
2016,09,14,04,35,11.30
2016,09,14,04,36,11.30
2016,09,14,04,37,11.30
2016,09,14,04,38,11.20
2016,09,14,04,39,11.20
2016,09,14,04,40,11.20
2016,09,14,04,41,11.20
2016,09,14,04,42,11.20
2016,09,14,04,43,11.10
2016,09,14,04,44,11.10
2016,09,14,04,45,11.10
2016,09,14,04,46,11.10
2016,09,14,04,47,11.10
2016,09,14,04,48,11.10
2016,09,14,04,49,11.10
2016,09,14,04,50,11.10
2016,09,14,04,51,11.00
2016,09,14,04,52,11.00
2016,09,14,04,53,11.00
2016,09,14,04,54,11.00
2016,09,14,04,55,11.00
2016,09,14,04,56,11.00
2016,09,14,04,57,11.00
2016,09,14,04,58,11.00
2016,09,14,04,59,11.00
2016,09,14,05,00,11.00
2016,09,14,05,01,11.00
2016,09,14,05,02,11.00
2016,09,14,05,03,11.00
2016,09,14,05,04,11.00
2016,09,14,05,05,11.00
2016,09,14,05,06,11.00
2016,09,14,05,07,11.00
2016,09,14,05,08,11.00
2016,09,14,05,09,11.00
2016,09,14,05,10,11.00
2016,09,14,05,11,11.00
2016,09,14,05,12,11.00
2016,09,14,05,13,11.00
2016,09,14,05,14,11.00
2016,09,14,05,15,11.00
2016,09,14,05,16,10.90
2016,09,14,05,17,10.90
2016,09,14,05,18,10.90
2016,09,14,05,19,10.90
2016,09,14,05,20,10.90
2016,09,14,05,21,10.90
2016,09,14,05,22,10.90
2016,09,14,05,23,10.90
2016,09,14,05,24,10.90
2016,09,14,05,25,10.90
2016,09,14,05,26,10.90
2016,09,14,05,27,10.90
2016,09,14,05,28,10.90
2016,09,14,05,29,10.90
2016,09,14,05,30,10.90
2016,09,14,05,31,10.90
2016,09,14,05,32,10.90
2016,09,14,05,33,10.90
2016,09,14,05,34,10.90
2016,09,14,05,35,10.90
2016,09,14,05,36,10.90
2016,09,14,05,37,10.90
2016,09,14,05,38,10.90
2016,09,14,05,39,10.90
2016,09,14,05,40,10.90
2016,09,14,05,41,10.90
2016,09,14,05,42,10.90
2016,09,14,05,43,10.90
2016,09,14,05,44,10.90
2016,09,14,05,45,10.90
2016,09,14,05,46,10.90
2016,09,14,05,47,10.90
2016,09,14,05,48,10.80
2016,09,14,05,49,10.80
2016,09,14,05,50,10.80
2016,09,14,05,51,10.80
2016,09,14,05,52,10.80
2016,09,14,05,53,10.80
2016,09,14,05,54,10.80
2016,09,14,05,55,10.80
2016,09,14,05,56,10.80
2016,09,14,05,57,10.80
2016,09,14,05,58,10.80
2016,09,14,05,59,10.80
2016,09,14,06,00,10.80
2016,09,14,06,01,10.80
2016,09,14,06,02,10.80
2016,09,14,06,03,10.80
2016,09,14,06,04,10.80
2016,09,14,06,05,10.80
2016,09,14,06,06,10.90
2016,09,14,06,07,10.90
2016,09,14,06,08,10.90
2016,09,14,06,09,10.90
2016,09,14,06,10,10.90
2016,09,14,06,11,10.90
2016,09,14,06,12,10.90
2016,09,14,06,13,10.90
2016,09,14,06,14,11.00
2016,09,14,06,15,11.00
2016,09,14,06,16,11.00
2016,09,14,06,17,11.00
2016,09,14,06,18,10.90
2016,09,14,06,19,10.90
2016,09,14,06,20,10.90
2016,09,14,06,21,10.90
2016,09,14,06,22,10.90
2016,09,14,06,23,10.90
2016,09,14,06,24,10.90
2016,09,14,06,25,10.90
2016,09,14,06,26,10.80
2016,09,14,06,27,10.80
2016,09,14,06,28,10.80
2016,09,14,06,29,10.80
2016,09,14,06,30,10.80
2016,09,14,06,31,10.80
2016,09,14,06,32,10.80
2016,09,14,06,33,10.80
2016,09,14,06,34,10.80
2016,09,14,06,35,10.80
2016,09,14,06,36,10.80
2016,09,14,06,37,10.80
2016,09,14,06,38,10.80
2016,09,14,06,39,10.80
2016,09,14,06,40,10.80
2016,09,14,06,41,10.80
2016,09,14,06,42,10.80
2016,09,14,06,43,10.80
2016,09,14,06,44,10.90
2016,09,14,06,45,10.90
2016,09,14,06,46,10.90
2016,09,14,06,47,10.80
2016,09,14,06,48,10.80
2016,09,14,06,49,10.80
2016,09,14,06,50,10.80
2016,09,14,06,51,10.80
2016,09,14,06,52,10.80
2016,09,14,06,53,10.80
2016,09,14,06,54,10.80
2016,09,14,06,55,10.80
2016,09,14,06,56,10.80
2016,09,14,06,57,10.80
2016,09,14,06,58,10.80
2016,09,14,06,59,10.80
2016,09,14,07,00,10.80
2016,09,14,07,01,10.80
2016,09,14,07,02,10.80
2016,09,14,07,03,10.80
2016,09,14,07,04,10.70
2016,09,14,07,05,10.70
2016,09,14,07,06,10.70
2016,09,14,07,07,10.70
2016,09,14,07,08,10.60
2016,09,14,07,09,10.60
2016,09,14,07,10,10.60
2016,09,14,07,11,10.60
2016,09,14,07,12,10.60
2016,09,14,07,13,10.50
2016,09,14,07,14,10.50
2016,09,14,07,15,10.50
2016,09,14,07,16,10.50
2016,09,14,07,17,10.50
2016,09,14,07,18,10.50
2016,09,14,07,19,10.50
2016,09,14,07,20,10.50
2016,09,14,07,21,10.50
2016,09,14,07,22,10.50
2016,09,14,07,23,10.50
2016,09,14,07,24,10.50
2016,09,14,07,25,10.40
2016,09,14,07,26,10.40
2016,09,14,07,27,10.40
2016,09,14,07,28,10.40
2016,09,14,07,29,10.40
2016,09,14,07,30,10.40
2016,09,14,07,31,10.40
2016,09,14,07,32,10.40
2016,09,14,07,33,10.40
2016,09,14,07,34,10.50
2016,09,14,07,35,10.50
2016,09,14,07,36,10.50
2016,09,14,07,37,10.50
2016,09,14,07,38,10.60
2016,09,14,07,39,10.60
2016,09,14,07,40,10.60
2016,09,14,07,41,10.60
2016,09,14,07,42,10.70
2016,09,14,07,43,10.70
2016,09,14,07,44,10.70
2016,09,14,07,45,10.80
2016,09,14,07,46,10.80
2016,09,14,07,47,10.80
2016,09,14,07,48,10.80
2016,09,14,07,49,10.80
2016,09,14,07,50,10.90
2016,09,14,07,51,10.90
2016,09,14,07,52,10.90
2016,09,14,07,53,11.00
2016,09,14,07,54,11.00
2016,09,14,07,55,11.10
2016,09,14,07,56,11.10
2016,09,14,07,57,11.10
2016,09,14,07,58,11.20
2016,09,14,07,59,11.20
2016,09,14,08,00,11.20
2016,09,14,08,01,11.30
2016,09,14,08,02,11.30
2016,09,14,08,03,11.40
2016,09,14,08,04,11.40
2016,09,14,08,05,11.50
2016,09,14,08,06,11.50
2016,09,14,08,07,11.60
2016,09,14,08,08,11.60
2016,09,14,08,09,11.70
2016,09,14,08,10,11.70
2016,09,14,08,11,11.70
2016,09,14,08,12,11.80
2016,09,14,08,13,11.80
2016,09,14,08,14,11.90
2016,09,14,08,15,11.90
2016,09,14,08,16,11.90
2016,09,14,08,17,12.00
2016,09,14,08,18,12.00
2016,09,14,08,19,12.10
2016,09,14,08,20,12.10
2016,09,14,08,21,12.20
2016,09,14,08,22,12.20
2016,09,14,08,23,12.30
2016,09,14,08,24,12.30
2016,09,14,08,25,12.40
2016,09,14,08,26,12.40
2016,09,14,08,27,12.50
2016,09,14,08,28,12.50
2016,09,14,08,29,12.60
2016,09,14,08,30,12.60
2016,09,14,08,31,12.70
2016,09,14,08,32,12.70
2016,09,14,08,33,12.70
2016,09,14,08,34,12.80
2016,09,14,08,35,12.80
2016,09,14,08,36,12.90
2016,09,14,08,37,12.90
2016,09,14,08,38,13.00
2016,09,14,08,39,13.10
2016,09,14,08,40,13.10
2016,09,14,08,41,13.20
2016,09,14,08,42,13.30
2016,09,14,08,43,13.30
2016,09,14,08,44,13.40
2016,09,14,08,45,13.50
2016,09,14,08,46,13.50
2016,09,14,08,47,13.60
2016,09,14,08,48,13.70
2016,09,14,08,49,13.80
2016,09,14,08,50,13.80
2016,09,14,08,51,13.90
2016,09,14,08,52,14.00
2016,09,14,08,53,14.00
2016,09,14,08,54,14.10
2016,09,14,08,55,14.20
2016,09,14,08,56,14.30
2016,09,14,08,57,14.30
2016,09,14,08,58,14.40
2016,09,14,08,59,14.40
2016,09,14,09,00,14.50
2016,09,14,09,01,14.60
2016,09,14,09,02,14.60
2016,09,14,09,03,14.70
2016,09,14,09,04,14.80
2016,09,14,09,05,14.90
2016,09,14,09,06,15.00
2016,09,14,09,07,15.20
2016,09,14,09,08,15.30
2016,09,14,09,09,15.40
2016,09,14,09,10,15.60
2016,09,14,09,11,15.70
2016,09,14,09,12,15.80
2016,09,14,09,13,15.90
2016,09,14,09,14,16.00
2016,09,14,09,15,16.00
2016,09,14,09,16,16.00
2016,09,14,09,17,16.10
2016,09,14,09,18,16.10
2016,09,14,09,19,16.20
2016,09,14,09,20,16.30
2016,09,14,09,21,16.30
2016,09,14,09,22,16.40
2016,09,14,09,23,16.50
2016,09,14,09,24,16.60
2016,09,14,09,25,16.70
2016,09,14,09,26,16.70
2016,09,14,09,27,16.80
2016,09,14,09,28,16.80
2016,09,14,09,29,16.80
2016,09,14,09,30,16.80
2016,09,14,09,31,16.80
2016,09,14,09,32,16.80
2016,09,14,09,33,16.80
2016,09,14,09,34,16.80
2016,09,14,09,35,16.80
2016,09,14,09,36,16.80
2016,09,14,09,37,16.90
2016,09,14,09,38,16.90
2016,09,14,09,39,16.90
2016,09,14,09,40,16.90
2016,09,14,09,41,17.00
2016,09,14,09,42,17.00
2016,09,14,09,43,17.10
2016,09,14,09,44,17.10
2016,09,14,09,45,17.20
2016,09,14,09,46,17.20
2016,09,14,09,47,17.30
2016,09,14,09,48,17.30
2016,09,14,09,49,17.40
2016,09,14,09,50,17.40
2016,09,14,09,51,17.40
2016,09,14,09,52,17.40
2016,09,14,09,53,17.40
2016,09,14,09,54,17.40
2016,09,14,09,55,17.50
2016,09,14,09,56,17.50
2016,09,14,09,57,17.50
2016,09,14,09,58,17.50
2016,09,14,09,59,17.50
2016,09,14,10,00,17.60
2016,09,14,10,01,17.60
2016,09,14,10,02,17.60
2016,09,14,10,03,17.60
2016,09,14,10,04,17.60
2016,09,14,10,05,17.60
2016,09,14,10,06,17.60
2016,09,14,10,07,17.70
2016,09,14,10,08,17.70
2016,09,14,10,09,17.70
2016,09,14,10,10,17.80
2016,09,14,10,11,17.80
2016,09,14,10,12,17.80
2016,09,14,10,13,17.90
2016,09,14,10,14,17.90
2016,09,14,10,15,17.90
2016,09,14,10,16,18.00
2016,09,14,10,17,18.00
2016,09,14,10,18,18.00
2016,09,14,10,19,18.10
2016,09,14,10,20,18.10
2016,09,14,10,21,18.10
2016,09,14,10,22,18.10
2016,09,14,10,23,18.10
2016,09,14,10,24,18.20
2016,09,14,10,25,18.20
2016,09,14,10,26,18.20
2016,09,14,10,27,18.30
2016,09,14,10,28,18.30
2016,09,14,10,29,18.30
2016,09,14,10,30,18.30
2016,09,14,10,31,18.40
2016,09,14,10,32,18.40
2016,09,14,10,33,18.40
2016,09,14,10,34,18.40
2016,09,14,10,35,18.40
2016,09,14,10,36,18.40
2016,09,14,10,37,18.40
2016,09,14,10,38,18.30
2016,09,14,10,39,18.20
2016,09,14,10,40,18.00
2016,09,14,10,41,17.90
2016,09,14,10,42,17.80
2016,09,14,10,43,17.70
2016,09,14,10,44,17.60
2016,09,14,10,45,17.50
2016,09,14,10,46,17.40
2016,09,14,10,47,17.30
2016,09,14,10,48,17.20
2016,09,14,10,49,17.10
2016,09,14,10,50,17.00
2016,09,14,10,51,16.90
2016,09,14,10,52,16.80
2016,09,14,10,53,16.70
2016,09,14,10,54,16.60
2016,09,14,10,55,16.50
2016,09,14,10,56,16.40
2016,09,14,10,57,16.40
2016,09,14,10,58,16.30
2016,09,14,10,59,16.20
2016,09,14,11,00,16.20
2016,09,14,11,01,16.10
2016,09,14,11,02,16.10
2016,09,14,11,03,16.10
2016,09,14,11,04,16.00
2016,09,14,11,05,16.00
2016,09,14,11,06,15.90
2016,09,14,11,07,15.90
2016,09,14,11,08,15.90
2016,09,14,11,09,15.80
2016,09,14,11,10,15.80
2016,09,14,11,11,15.80
2016,09,14,11,12,15.80
2016,09,14,11,13,15.90
2016,09,14,11,14,15.90
2016,09,14,11,15,15.90
2016,09,14,11,16,15.90
2016,09,14,11,17,15.90
2016,09,14,11,18,15.90
2016,09,14,11,19,15.80
2016,09,14,11,20,15.90
2016,09,14,11,21,15.80
2016,09,14,11,22,15.80
2016,09,14,11,23,15.80
2016,09,14,11,24,15.80
2016,09,14,11,25,15.80
2016,09,14,11,26,15.90
2016,09,14,11,27,15.90
2016,09,14,11,28,15.90
2016,09,14,11,29,15.90
2016,09,14,11,30,15.90
2016,09,14,11,31,15.90
2016,09,14,11,32,16.00
2016,09,14,11,33,16.00
2016,09,14,11,34,16.00
2016,09,14,11,35,16.00
2016,09,14,11,36,16.00
2016,09,14,11,37,16.10
2016,09,14,11,38,16.10
2016,09,14,11,39,16.00
2016,09,14,11,40,16.00
2016,09,14,11,41,16.00
2016,09,14,11,42,16.00
2016,09,14,11,43,16.00
2016,09,14,11,44,16.10
2016,09,14,11,45,16.10
2016,09,14,11,46,16.00
2016,09,14,11,47,16.00
2016,09,14,11,48,16.00
2016,09,14,11,49,16.10
2016,09,14,11,50,16.10
2016,09,14,11,51,16.00
2016,09,14,11,52,16.10
2016,09,14,11,53,16.00
2016,09,14,11,54,16.00
2016,09,14,11,55,16.00
2016,09,14,11,56,16.00
2016,09,14,11,57,16.10
2016,09,14,11,58,16.10
2016,09,14,11,59,16.10
2016,09,14,12,00,16.10
2016,09,14,12,01,16.10
2016,09,14,12,02,16.10
2016,09,14,12,03,16.10
2016,09,14,12,04,16.10
2016,09,14,12,05,16.10
2016,09,14,12,06,16.10
2016,09,14,12,07,16.10
2016,09,14,12,08,16.10
2016,09,14,12,09,16.10
2016,09,14,12,10,16.10
2016,09,14,12,11,16.10
2016,09,14,12,12,16.10
2016,09,14,12,13,16.10
2016,09,14,12,14,16.10
2016,09,14,12,15,16.10
2016,09,14,12,16,16.10
2016,09,14,12,17,16.10
2016,09,14,12,18,16.10
2016,09,14,12,19,16.20
2016,09,14,12,20,16.20
2016,09,14,12,21,16.20
2016,09,14,12,22,16.20
2016,09,14,12,23,16.20
2016,09,14,12,24,16.20
2016,09,14,12,25,16.20
2016,09,14,12,26,16.30
2016,09,14,12,27,16.30
2016,09,14,12,28,16.30
2016,09,14,12,29,16.40
2016,09,14,12,30,16.40
2016,09,14,12,31,16.50
2016,09,14,12,32,16.50
2016,09,14,12,33,16.50
2016,09,14,12,34,16.60
2016,09,14,12,35,16.60
2016,09,14,12,36,16.60
2016,09,14,12,37,16.60
2016,09,14,12,38,16.60
2016,09,14,12,39,16.70
2016,09,14,12,40,16.70
2016,09,14,12,41,16.70
2016,09,14,12,42,16.80
2016,09,14,12,43,16.80
2016,09,14,12,44,16.90
2016,09,14,12,45,16.90
2016,09,14,12,46,17.00
2016,09,14,12,47,17.10
2016,09,14,12,48,17.10
2016,09,14,12,49,17.20
2016,09,14,12,50,17.20
2016,09,14,12,51,17.30
2016,09,14,12,52,17.30
2016,09,14,12,53,17.40
2016,09,14,12,54,17.40
2016,09,14,12,55,17.40
2016,09,14,12,56,17.40
2016,09,14,12,57,17.50
2016,09,14,12,58,17.50
2016,09,14,12,59,17.60
2016,09,14,13,00,17.60
2016,09,14,13,01,17.60
2016,09,14,13,02,17.60
2016,09,14,13,03,17.70
2016,09,14,13,04,17.70
2016,09,14,13,05,17.80
2016,09,14,13,06,17.80
2016,09,14,13,07,17.80
2016,09,14,13,08,17.90
2016,09,14,13,09,17.90
2016,09,14,13,10,17.90
2016,09,14,13,11,18.00
2016,09,14,13,12,18.00
2016,09,14,13,13,18.10
2016,09,14,13,14,18.10
2016,09,14,13,15,18.10
2016,09,14,13,16,18.20
2016,09,14,13,17,18.20
2016,09,14,13,18,18.20
2016,09,14,13,19,18.30
2016,09,14,13,20,18.30
2016,09,14,13,21,18.30
2016,09,14,13,22,18.40
2016,09,14,13,23,18.40
2016,09,14,13,24,18.50
2016,09,14,13,25,18.50
2016,09,14,13,26,18.50
2016,09,14,13,27,18.50
2016,09,14,13,28,18.40
2016,09,14,13,29,18.30
2016,09,14,13,30,18.20
2016,09,14,13,31,18.10
2016,09,14,13,32,18.00
2016,09,14,13,33,17.90
2016,09,14,13,34,17.80
2016,09,14,13,35,17.70
2016,09,14,13,36,17.60
2016,09,14,13,37,17.50
2016,09,14,13,38,17.40
2016,09,14,13,39,17.40
2016,09,14,13,40,17.30
2016,09,14,13,41,17.20
2016,09,14,13,42,17.20
2016,09,14,13,43,17.00
2016,09,14,13,44,17.00
2016,09,14,13,45,16.90
2016,09,14,13,46,16.70
2016,09,14,13,47,16.70
2016,09,14,13,48,16.60
2016,09,14,13,49,16.50
2016,09,14,13,50,16.40
2016,09,14,13,51,16.40
2016,09,14,13,52,16.30
2016,09,14,13,53,16.30
2016,09,14,13,54,16.30
2016,09,14,13,55,16.30
2016,09,14,13,56,16.30
2016,09,14,13,57,16.30
2016,09,14,13,58,16.20
2016,09,14,13,59,16.20
2016,09,14,14,00,16.20
2016,09,14,14,01,16.20
2016,09,14,14,02,16.30
2016,09,14,14,03,16.30
2016,09,14,14,04,16.30
2016,09,14,14,05,16.30
2016,09,14,14,06,16.30
2016,09,14,14,07,16.40
2016,09,14,14,08,16.40
2016,09,14,14,09,16.40
2016,09,14,14,10,16.40
2016,09,14,14,11,16.40
2016,09,14,14,12,16.50
2016,09,14,14,13,16.50
2016,09,14,14,14,16.50
2016,09,14,14,15,16.50
2016,09,14,14,16,16.50
2016,09,14,14,17,16.50
2016,09,14,14,18,16.50
2016,09,14,14,19,16.50
2016,09,14,14,20,16.50
2016,09,14,14,21,16.50
2016,09,14,14,22,16.50
2016,09,14,14,23,16.60
2016,09,14,14,24,16.60
2016,09,14,14,25,16.60
2016,09,14,14,26,16.60
2016,09,14,14,27,16.70
2016,09,14,14,28,16.70
2016,09,14,14,29,16.80
2016,09,14,14,30,16.80
2016,09,14,14,31,16.90
2016,09,14,14,32,16.90
2016,09,14,14,33,17.00
2016,09,14,14,34,17.00
2016,09,14,14,35,17.10
2016,09,14,14,36,17.20
2016,09,14,14,37,17.30
2016,09,14,14,38,17.30
2016,09,14,14,39,17.40
2016,09,14,14,40,17.40
2016,09,14,14,41,17.50
2016,09,14,14,42,17.50
2016,09,14,14,43,17.60
2016,09,14,14,44,17.60
2016,09,14,14,45,17.60
2016,09,14,14,46,17.60
2016,09,14,14,47,17.70
2016,09,14,14,48,17.70
2016,09,14,14,49,17.70
2016,09,14,14,50,17.70
2016,09,14,14,51,17.70
2016,09,14,14,52,17.60
2016,09,14,14,53,17.60
2016,09,14,14,54,17.60
2016,09,14,14,55,17.50
2016,09,14,14,56,17.50
2016,09,14,14,57,17.40
2016,09,14,14,58,17.40
2016,09,14,14,59,17.40
2016,09,14,15,00,17.30
2016,09,14,15,01,17.30
2016,09,14,15,02,17.30
2016,09,14,15,03,17.30
2016,09,14,15,04,17.30
2016,09,14,15,05,17.30
2016,09,14,15,06,17.30
2016,09,14,15,07,17.30
2016,09,14,15,08,17.30
2016,09,14,15,09,17.30
2016,09,14,15,10,17.30
2016,09,14,15,11,17.30
2016,09,14,15,12,17.20
2016,09,14,15,13,17.20
2016,09,14,15,14,17.20
2016,09,14,15,15,17.20
2016,09,14,15,16,17.20
2016,09,14,15,17,17.20
2016,09,14,15,18,17.20
2016,09,14,15,19,17.10
2016,09,14,15,20,17.10
2016,09,14,15,21,17.10
2016,09,14,15,22,17.10
2016,09,14,15,23,17.10
2016,09,14,15,24,17.10
2016,09,14,15,25,17.10
2016,09,14,15,26,17.10
2016,09,14,15,27,17.10
2016,09,14,15,28,17.10
2016,09,14,15,29,17.10
2016,09,14,15,30,17.10
2016,09,14,15,31,17.10
2016,09,14,15,32,17.10
2016,09,14,15,33,17.10
2016,09,14,15,34,17.00
2016,09,14,15,35,17.00
2016,09,14,15,36,16.90
2016,09,14,15,37,16.90
2016,09,14,15,38,16.90
2016,09,14,15,39,16.80
2016,09,14,15,40,16.80
2016,09,14,15,41,16.80
2016,09,14,15,42,16.80
2016,09,14,15,43,16.80
2016,09,14,15,44,16.80
2016,09,14,15,45,16.80
2016,09,14,15,46,16.80
2016,09,14,15,47,16.80
2016,09,14,15,48,16.70
2016,09,14,15,49,16.70
2016,09,14,15,50,16.70
2016,09,14,15,51,16.70
2016,09,14,15,52,16.60
2016,09,14,15,53,16.60
2016,09,14,15,54,16.60
2016,09,14,15,55,16.60
2016,09,14,15,56,16.60
2016,09,14,15,57,16.60
2016,09,14,15,58,16.60
2016,09,14,15,59,16.60
2016,09,14,16,00,16.60
2016,09,14,16,01,16.60
2016,09,14,16,02,16.60
2016,09,14,16,03,16.60
2016,09,14,16,04,16.60
2016,09,14,16,05,16.60
2016,09,14,16,06,16.60
2016,09,14,16,07,16.60
2016,09,14,16,08,16.60
2016,09,14,16,09,16.60
2016,09,14,16,10,16.60
2016,09,14,16,11,16.60
2016,09,14,16,12,16.60
2016,09,14,16,13,16.60
2016,09,14,16,14,16.50
2016,09,14,16,15,16.50
2016,09,14,16,16,16.40
2016,09,14,16,17,16.40
2016,09,14,16,18,16.40
2016,09,14,16,19,16.40
2016,09,14,16,20,16.40
2016,09,14,16,21,16.40
2016,09,14,16,22,16.40
2016,09,14,16,23,16.40
2016,09,14,16,24,16.40
2016,09,14,16,25,16.30
2016,09,14,16,26,16.30
2016,09,14,16,27,16.30
2016,09,14,16,28,16.30
2016,09,14,16,29,16.20
2016,09,14,16,30,16.20
2016,09,14,16,31,16.20
2016,09,14,16,32,16.30
2016,09,14,16,33,16.30
2016,09,14,16,34,16.30
2016,09,14,16,35,16.40
2016,09,14,16,36,16.40
2016,09,14,16,37,16.50
2016,09,14,16,38,16.50
2016,09,14,16,39,16.60
2016,09,14,16,40,16.70
2016,09,14,16,41,16.70
2016,09,14,16,42,16.70
2016,09,14,16,43,16.70
2016,09,14,16,44,16.70
2016,09,14,16,45,16.80
2016,09,14,16,46,16.80
2016,09,14,16,47,16.80
2016,09,14,16,48,16.80
2016,09,14,16,49,16.80
2016,09,14,16,50,16.90
2016,09,14,16,51,16.90
2016,09,14,16,52,16.90
2016,09,14,16,53,16.80
2016,09,14,16,54,16.80
2016,09,14,16,55,16.80
2016,09,14,16,56,16.80
2016,09,14,16,57,16.80
2016,09,14,16,58,16.80
2016,09,14,16,59,16.80
2016,09,14,17,00,16.80
2016,09,14,17,01,16.80
2016,09,14,17,02,16.80
2016,09,14,17,03,16.80
2016,09,14,17,04,16.70
2016,09,14,17,05,16.70
2016,09,14,17,06,16.60
2016,09,14,17,07,16.50
2016,09,14,17,08,16.40
2016,09,14,17,09,16.40
2016,09,14,17,10,16.30
2016,09,14,17,11,16.30
2016,09,14,17,12,16.40
2016,09,14,17,13,16.30
2016,09,14,17,14,16.20
2016,09,14,17,15,15.90
2016,09,14,17,16,15.70
2016,09,14,17,17,15.40
2016,09,14,17,18,15.20
2016,09,14,17,19,15.00